Temp
-11 -11 -11 -11 -12 -12 -12 -12 -13 -13 -13 -14 -15 -16 -17 -18 -18 -19 -19 -19 -19 -19 -19 -19 -20 -19 -19 -19 -19 -19 -18 -17 -17 -16 -16 -15 -14 -13 -13 -12 -12 -12 -12 -12 -13 -12 -12
-11 -11 -12 -11 -12 -12 -12 -13 -13 -13 -14 -15 -15 -16 -17 -18 -18 -19 -19 -19 -18 -19 -19 -20 -20 -20 -19 -19 -19 -19 -18 -18 -17 -17 -16 -16 -15 -14 -13 -13 -12 -12 -12 -13 -13 -13 -12
-12 -12 -12 -12 -12 -12 -12 -13 -13 -14 -14 -15 -16 -16 -17 -18 -18 -19 -19 -19 -19 -19 -20 -20 -20 -20 -20 -19 -19 -18 -18 -18 -17 -17 -17 -16 -15 -14 -13 -13 -13 -13 -13 -12 -13 -13 -12
-12 -12 -12 -12 -11 -12 -12 -13 -13 -14 -14 -15 -16 -16 -17 -18 -18 -19 -19 -19 -20 -20 -21 -20 -20 -20 -20 -20 -19 -19 -19 -18 -18 -18 -17 -16 -15 -15 -14 -13 -13 -13 -13 -13 -12 -13 -13
-12 -12 -12 -12 -12 -12 -12 -13 -14 -14 -15 -15 -16 -16 -17 -18 -19 -19 -19 -19 -20 -20 -20 -20 -20 -20 -20 -20 -20 -19 -19 -18 -18 -18 -18 -17 -16 -16 -14 -14 -14 -13 -13 -13 -12 -12 -13
-13 -13 -12 -13 -13 -13 -12 -13 -14 -14 -15 -15 -16 -17 -17 -18 -18 -19 -19 -19 -20 -20 -20 -20 -20 -20 -20 -20 -20 -19 -19 -18 -18 -18 -18 -18 -18 -16 -15 -14 -13 -13 -13 -13 -13 -12 -13
-13 -13 -13 -13 -13 -13 -13 -13 -14 -14 -15 -15 -16 -17 -17 -17 -18 -19 -19 -20 -20 -19 -20 -20 -20 -20 -21 -20 -20 -19 -19 -19 -19 -19 -18 -18 -18 -17 -16 -15 -14 -14 -13 -13 -13 -13 -13
-13 -13 -13 -13 -13 -13 -13 -14 -14 -14 -15 -15 -16 -16 -17 -17 -18 -19 -19 -19 -20 -20 -20 -20 -20 -20 -20 -20 -20 -20 -19 -19 -19 -19 -19 -19 -18 -18 -17 -16 -15 -15 -14 -14 -13 -13 -13
-14 -14 -14 -14 -14 -14 -14 -14 -14 -14 -14 -15 -16 -16 -17 -17 -18 -18 -19 -19 -20 -20 -20 -20 -20 -20 -20 -20 -20 -20 -20 -19 -19 -19 -19 -19 -19 -19 -18 -17 -16 -15 -14 -13 -13 -13 -13
-14 -14 -14 -14 -14 -14 -14 -14 -14 -14 -14 -15 -15 -16 -17 -17 -17 -18 -18 -19 -19 -20 -19 -20 -20 -20 -20 -20 -20 -20 -20 -20 -19 -19 -19 -19 -19 -19 -18 -17 -16 -15 -14 -14 -13 -13 -13
-14 -14 -14 -14 -14 -15 -15 -15 -15 -15 -14 -15 -15 -15 -16 -17 -17 -18 -18 -18 -19 -19 -19 -19 -19 -19 -20 -20 -20 -20 -20 -20 -20 -20 -20 -20 -19 -19 -18 -17 -16 -15 -14 -14 -13 -13 -13
-14 -14 -14 -14 -14 -15 -15 -15 -15 -15 -15 -15 -15 -15 -16 -16 -17 -17 -18 -18 -18 -19 -19 -19 -19 -19 -19 -20 -20 -20 -20 -20 -20 -20 -20 -20 -19 -19 -18 -17 -16 -15 -15 -14 -14 -13 -13
-14 -14 -14 -14 -14 -14 -15 -15 -15 -15 -15 -15 -15 -15 -15 -16 -16 -17 -17 -17 -17 -18 -18 -18 -19 -19 -19 -20 -20 -20 -20 -20 -20 -21 -20 -20 -19 -18 -18 -17 -16 -15 -15 -14 -14 -13 -13
-14 -14 -14 -14 -14 -14 -14 -15 -15 -15 -15 -15 -15 -15 -15 -15 -16 -16 -17 -17 -17 -17 -18 -18 -18 -19 -19 -19 -20 -20 -20 -20 -20 -20 -19 -19 -19 -18 -18 -16 -16 -15 -15 -14 -13 -13 -12
-15 -15 -15 -15 -15 -15 -15 -15 -15 -15 -15 -15 -15 -15 -15 -15 -15 -15 -16 -16 -17 -17 -17 -17 -18 -18 -19 -19 -19 -19 -20 -19 -19 -19 -19 -19 -18 -18 -17 -16 -16 -15 -14 -14 -13 -13 -13
-15 -15 -15 -15 -15 -15 -15 -15 -15 -15 -15 -15 -15 -15 -15 -15 -15 -15 -15 -15 -16 -16 -17 -17 -17 -18 -18 -18 -19 -18 -19 -19 -19 -19 -19 -18 -18 -17 -17 -16 -15 -14 -14 -13 -13 -13 -13
-15 -15 -15 -15 -15 -15 -15 -15 -15 -15 -15 -15 -15 -15 -15 -15 -15 -15 -15 -16 -16 -16 -16 -16 -17 -17 -17 -18 -18 -18 -18 -18 -18 -19 -19 -18 -18 -17 -16 -15 -15 -15 -14 -13 -13 -13 -12
-15 -15 -15 -15 -15 -15 -16 -15 -15 -15 -15 -15 -15 -15 -15 -15 -15 -15 -15 -15 -15 -15 -16 -16 -16 -16 -17 -17 -17 -18 -18 -18 -18 -18 -18 -18 -18 -17 -17 -16 -15 -14 -14 -13 -13 -13 -13
-15 -15 -16 -15 -15 -15 -15 -16 -16 -16 -15 -15 -15 -15 -15 -15 -15 -15 -15 -15 -15 -15 -15 -15 -16 -16 -16 -16 -16 -17 -17 -17 -17 -17 -17 -17 -17 -17 -17 -16 -16 -15 -15 -15 -14 -14 -14
-15 -15 -15 -16 -16 -16 -16 -16 -16 -16 -16 -16 -16 -16 -15 -15 -15 -15 -15 -15 -15 -15 -15 -15 -15 -15 -16 -16 -16 -16 -16 -16 -16 -16 -16 -16 -16 -16 -16 -16 -16 -16 -16 -16 -15 -15 -15
-16 -16 -16 -16 -16 -16 -16 -16 -16 -16 -16 -16 -16 -16 -15 -15 -15 -15 -15 -15 -16 -15 -15 -15 -15 -15 -15 -15 -15 -15 -15 -15 -15 -15 -16 -16 -16 -15 -15 -15 -15 -15 -15 -15 -15 -14 -14
-15 -16 -16 -16 -16 -16 -16 -16 -16 -16 -16 -16 -16 -16 -16 -16 -15 -15 -15 -15 -15 -15 -15 -15 -15 -15 -15 -15 -14 -15 -15 -15 -15 -15 -15 -15 -15 -15 -15 -15 -14 -14 -14 -14 -14 -14 -14
-16 -16 -16 -16 -16 -16 -16 -16 -17 -16 -17 -17 -17 -16 -16 -16 -16 -15 -15 -15 -15 -15 -15 -15 -15 -15 -14 -15 -15 -15 -14 -14 -14 -14 -14 -14 -14 -14 -14 -14 -14 -14 -14 -14 -14 -14 -14
-15 -16 -16 -16 -16 -16 -16 -16 -16 -17 -17 -17 -17 -17 -16 -16 -16 -16 -16 -15 -14 -15 -15 -15 -15 -14 -15 -15 -14 -14 -14 -14 -14 -14 -14 -14 -14 -14 -13 -14 -13 -13 -14 -14 -14 -14 -14
-16 -16 -16 -16 -16 -16 -17 -16 -17 -17 -17 -17 -17 -17 -17 -16 -16 -16 -16 -15 -15 -14 -14 -15 -14 -14 -14 -14 -14 -14 -14 -14 -14 -14 -14 -14 -14 -14 -14 -14 -13 -13 -13 -13 -13 -13 -13
-17 -16 -16 -17 -17 -17 -17 -17 -17 -17 -17 -17 -17 -17 -17 -17 -17 -16 -16 -15 -15 -14 -14 -14 -14 -14 -14 -14 -14 -14 -14 -14 -14 -14 -14 -14 -14 -14 -14 -13 -13 -13 -14 -14 -14 -13 -14
-18 -17 -17 -17 -18 -18 -18 -18 -17 -17 -17 -18 -18 -18 -18 -17 -17 -16 -16 -15 -15 -15 -14 -14 -14 -14 -14 -14 -14 -14 -14 -14 -14 -14 -14 -14 -14 -14 -14 -13 -13 -13 -13 -13 -13 -14 -14
-17 -17 -18 -18 -17 -18 -18 -18 -18 -18 -18 -18 -18 -17 -17 -17 -17 -17 -16 -15 -14 -15 -15 -14 -14 -15 -15 -15 -14 -14 -14 -14 -14 -14 -14 -14 -14 -14 -14 -14 -14 -14 -14 -14 -14 -14 -14
-17 -17 -17 -17 -17 -18 -18 -17 -17 -18 -17 -17 -18 -17 -16 -16 -15 -16 -16 -16 -16 -15 -15 -15 -14 -15 -14 -15 -15 -14 -14 -14 -14 -14 -14 -15 -15 -15 -15 -15 -15 -14 -14 -14 -15 -15 -15
Height
5807 5804 5800 5796 5791 5788 5782 5776 5770 5764 5755 5745 5737 5728 5718 5708 5699 5689 5680 5673 5669 5665 5664 5664 5665 5668 5671 5675 5678 5683 5689 5696 5704 5713 5723 5733 5744 5755 5766 5777 5789 5797 5808 5817 5824 5831 5838
5807 5804 5800 5795 5791 5787 5781 5776 5769 5762 5753 5744 5735 5726 5717 5707 5697 5688 5679 5672 5666 5662 5660 5659 5661 5663 5667 5672 5675 5681 5686 5692 5698 5706 5714 5724 5734 5746 5757 5769 5780 5790 5801 5810 5817 5824 5831
5806 5803 5800 5795 5790 5786 5780 5774 5767 5760 5751 5742 5734 5726 5716 5707 5697 5688 5679 5670 5663 5658 5655 5657 5658 5660 5665 5669 5673 5678 5683 5689 5695 5701 5709 5717 5727 5738 5750 5761 5772 5782 5793 5802 5811 5819 5824
5806 5803 5799 5794 5790 5785 5779 5773 5766 5759 5752 5742 5734 5727 5717 5708 5698 5689 5680 5670 5662 5657 5654 5656 5658 5660 5663 5666 5671 5676 5681 5686 5692 5699 5705 5712 5721 5731 5742 5754 5764 5775 5786 5795 5804 5812 5819
5805 5802 5799 5795 5790 5785 5779 5773 5767 5759 5752 5743 5735 5727 5719 5710 5700 5691 5683 5673 5665 5660 5658 5658 5660 5661 5664 5666 5670 5674 5679 5684 5689 5695 5702 5707 5714 5724 5736 5747 5757 5767 5780 5789 5799 5806 5813
5804 5801 5798 5795 5790 5785 5779 5774 5767 5760 5753 5745 5737 5729 5721 5713 5704 5694 5686 5679 5671 5665 5663 5663 5664 5664 5665 5667 5670 5673 5677 5682 5687 5693 5699 5705 5710 5718 5729 5740 5752 5765 5775 5785 5794 5801 5808
5803 5800 5796 5793 5790 5785 5779 5773 5767 5761 5754 5747 5739 5732 5724 5716 5708 5698 5690 5684 5679 5672 5668 5667 5667 5666 5666 5668 5671 5673 5676 5681 5686 5691 5697 5702 5708 5716 5727 5737 5744 5758 5770 5780 5789 5797 5805
5804 5800 5795 5792 5789 5785 5781 5775 5769 5763 5756 5749 5742 5735 5727 5720 5712 5704 5695 5689 5683 5678 5674 5671 5670 5670 5670 5670 5672 5674 5676 5681 5685 5690 5695 5701 5706 5713 5722 5732 5742 5753 5763 5773 5784 5793 5801
5803 5800 5796 5792 5788 5784 5780 5776 5771 5765 5758 5752 5745 5739 5731 5724 5716 5709 5701 5694 5688 5683 5680 5677 5675 5674 5675 5675 5675 5676 5677 5680 5684 5689 5694 5697 5704 5711 5719 5728 5738 5750 5760 5769 5780 5788 5795
5803 5801 5797 5794 5789 5785 5780 5776 5771 5766 5761 5755 5748 5741 5736 5728 5722 5715 5708 5700 5694 5689 5685 5683 5681 5679 5678 5677 5677 5677 5678 5681 5684 5687 5692 5696 5702 5710 5718 5727 5737 5748 5757 5766 5775 5783 5789
5802 5800 5797 5794 5791 5786 5782 5777 5772 5767 5761 5757 5752 5745 5740 5732 5726 5720 5716 5708 5702 5697 5693 5690 5686 5683 5681 5681 5680 5680 5681 5683 5684 5687 5693 5696 5702 5711 5718 5725 5735 5745 5754 5763 5771 5778 5785
5803 5800 5797 5794 5791 5788 5784 5778 5774 5770 5764 5759 5754 5749 5743 5738 5731 5726 5720 5715 5710 5705 5699 5696 5692 5689 5686 5684 5682 5682 5683 5684 5687 5689 5692 5697 5704 5712 5718 5724 5733 5742 5751 5760 5767 5774 5779
5802 5800 5797 5795 5792 5788 5785 5781 5777 5772 5768 5762 5757 5752 5746 5741 5737 5732 5726 5722 5718 5710 5707 5703 5698 5694 5691 5689 5686 5686 5687 5688 5691 5694 5697 5701 5708 5714 5717 5724 5733 5742 5749 5757 5763 5767 5774
5800 5799 5796 5795 5792 5788 5786 5782 5778 5774 5770 5765 5761 5755 5750 5745 5740 5736 5732 5728 5722 5717 5712 5708 5704 5701 5698 5695 5694 5692 5692 5693 5695 5698 5702 5707 5713 5716 5719 5727 5735 5741 5748 5755 5760 5766 5773
5797 5797 5795 5793 5791 5789 5785 5782 5779 5776 5772 5768 5762 5758 5754 5749 5744 5739 5736 5732 5728 5723 5719 5715 5711 5707 5704 5702 5701 5700 5698 5699 5701 5702 5706 5711 5716 5718 5721 5728 5736 5742 5748 5754 5760 5764 5769
5793 5792 5792 5790 5789 5788 5785 5783 5779 5777 5773 5768 5765 5761 5757 5752 5747 5743 5740 5736 5732 5729 5724 5720 5717 5714 5711 5709 5707 5706 5707 5707 5707 5708 5710 5714 5717 5719 5724 5730 5735 5740 5746 5752 5756 5760 5763
5789 5789 5788 5787 5785 5785 5784 5781 5779 5776 5773 5769 5766 5763 5759 5755 5750 5746 5742 5738 5735 5732 5730 5726 5722 5720 5718 5716 5714 5713 5713 5714 5715 5715 5716 5716 5717 5722 5726 5730 5734 5739 5743 5748 5752 5755 5758
5785 5785 5784 5783 5782 5781 5781 5779 5777 5775 5772 5769 5766 5764 5760 5757 5755 5750 5745 5741 5738 5734 5732 5731 5728 5725 5723 5721 5719 5718 5718 5717 5718 5720 5721 5721 5721 5723 5727 5730 5733 5737 5741 5744 5747 5752 5753
5779 5779 5780 5779 5778 5778 5776 5776 5774 5772 5770 5768 5766 5763 5761 5758 5754 5751 5748 5744 5742 5738 5734 5732 5731 5729 5727 5725 5725 5723 5722 5721 5721 5721 5723 5724 5726 5727 5728 5730 5732 5735 5739 5741 5743 5744 5747
5772 5772 5773 5774 5773 5773 5772 5771 5770 5769 5767 5766 5764 5762 5759 5756 5754 5751 5748 5746 5742 5740 5737 5735 5732 5730 5729 5729 5727 5727 5725 5725 5724 5724 5724 5725 5726 5728 5730 5731 5733 5734 5736 5737 5738 5740 5744
5765 5765 5766 5766 5767 5767 5767 5766 5765 5764 5762 5762 5760 5758 5757 5754 5751 5749 5747 5745 5742 5740 5737 5736 5734 5732 5729 5728 5727 5727 5727 5727 5727 5727 5726 5726 5727 5727 5728 5729 5731 5732 5734 5735 5736 5737 5737
5756 5757 5759 5759 5760 5760 5759 5758 5757 5757 5756 5755 5755 5753 5751 5750 5747 5745 5743 5742 5741 5738 5736 5734 5733 5731 5730 5728 5727 5726 5725 5725 5725 5726 5726 5727 5727 5727 5727 5728 5728 5729 5730 5730 5731 5731 5731
5746 5747 5749 5750 5752 5752 5752 5751 5749 5749 5749 5747 5746 5746 5745 5745 5742 5742 5738 5737 5736 5735 5733 5731 5730 5728 5727 5726 5725 5724 5723 5723 5723 5723 5722 5723 5724 5724 5725 5723 5723 5726 5726 5725 5725 5725 5724
5736 5737 5739 5740 5741 5742 5742 5741 5741 5740 5741 5740 5739 5738 5737 5738 5736 5734 5733 5730 5729 5728 5727 5726 5725 5724 5723 5722 5722 5721 5720 5718 5718 5718 5718 5718 5718 5718 5719 5718 5718 5720 5720 5719 5718 5717 5716
5725 5726 5727 5728 5729 5730 5730 5731 5731 5731 5730 5731 5730 5729 5727 5728 5728 5727 5725 5724 5723 5722 5720 5719 5718 5717 5716 5716 5716 5716 5715 5715 5714 5713 5712 5711 5711 5710 5709 5710 5710 5711 5712 5710 5709 5708 5706
5711 5713 5714 5715 5716 5717 5718 5719 5719 5719 5719 5719 5719 5718 5717 5716 5720 5717 5715 5715 5714 5713 5713 5711 5710 5709 5708 5708 5708 5708 5708 5708 5707 5708 5707 5705 5703 5702 5702 5698 5698 5700 5700 5699 5698 5693 5694
5696 5699 5700 5701 5701 5703 5704 5705 5706 5706 5707 5707 5707 5705 5704 5703 5707 5707 5707 5705 5705 5704 5704 5703 5702 5701 5699 5699 5699 5699 5698 5698 5698 5699 5699 5697 5694 5693 5692 5688 5688 5690 5688 5686 5684 5685 5679
5679 5681 5682 5684 5686 5688 5689 5689 5690 5691 5692 5692 5692 5692 5691 5689 5691 5693 5694 5695 5695 5695 5694 5693 5694 5695 5690 5690 5689 5689 5687 5688 5688 5688 5687 5687 5686 5684 5682 5679 5677 5676 5675 5675 5672 5668 5666
5661 5662 5664 5666 5669 5670 5672 5672 5673 5674 5675 5676 5678 5677 5676 5676 5678 5679 5679 5682 5682 5682 5683 5680 5682 5682 5680 5680 5679 5676 5675 5675 5676 5675 5676 5675 5674 5671 5671 5670 5667 5663 5660 5657 5656 5654 5652
Wind_Speed
14 15 19 21 22 24 25 29 32 34 38 33 31 32 35 34 36 38 35 24 18 13 15 19 20 26 23 21 23 27 31 37 44 46 51 57 64 66 69 68 66 64 61 58 57 53 45
14 15 18 21 23 25 27 29 32 34 38 33 33 32 33 38 37 37 35 27 24 20 14 14 21 22 27 26 23 24 27 32 38 42 47 52 58 64 67 68 67 65 60 59 55 54 54
15 16 17 20 23 25 27 29 31 33 38 36 34 32 33 37 38 37 33 31 26 25 9 10 17 20 20 25 27 28 27 29 31 32 38 47 53 61 65 67 68 65 62 58 56 54 52
14 17 17 19 22 23 26 29 31 33 36 39 35 33 32 36 39 36 33 35 24 19 7 3 4 10 12 18 24 25 25 28 29 30 34 40 48 55 62 65 67 66 63 60 58 54 51
11 14 17 19 20 23 25 28 31 33 36 41 39 37 34 35 38 36 31 33 26 19 11 4 2 2 7 12 16 20 23 25 28 29 28 33 43 51 59 61 65 65 63 62 58 54 50
8 11 15 18 21 23 25 27 30 33 36 39 41 38 36 35 38 38 28 32 25 20 13 9 8 7 7 9 13 16 19 23 26 28 26 29 39 48 54 59 64 65 63 61 57 54 50
9 10 12 16 20 23 25 27 29 32 35 38 40 38 39 34 38 40 32 28 28 19 17 9 10 8 9 9 10 14 16 20 24 26 26 27 36 44 50 54 60 59 57 56 55 51 48
11 12 14 15 18 22 26 29 31 33 34 36 38 38 39 38 36 40 34 30 25 26 23 15 12 8 8 7 8 11 15 19 22 24 23 27 32 42 47 50 54 54 53 54 52 49 46
16 17 17 18 19 21 23 27 31 35 35 35 36 37 36 41 39 39 37 29 27 24 22 20 15 10 4 4 9 7 14 18 21 23 22 26 32 41 45 47 50 51 51 52 51 48 46
16 19 21 22 23 24 24 26 28 32 35 36 34 34 33 37 42 41 39 35 29 26 24 20 15 9 7 4 3 7 12 16 21 22 24 25 33 40 42 44 45 46 48 48 49 48 48
13 16 19 21 22 25 27 28 27 29 32 34 37 34 33 32 36 38 39 37 31 28 26 22 19 14 10 8 6 5 8 12 16 18 22 26 33 38 40 42 42 43 45 46 47 47 46
10 12 14 17 21 23 25 27 29 30 30 31 33 36 33 31 30 34 35 36 35 30 29 22 23 19 14 8 7 6 7 10 13 17 21 23 31 36 38 38 40 41 42 43 44 45 47
7 10 12 15 17 20 23 26 28 29 30 30 30 31 33 31 29 29 32 33 34 34 29 28 22 23 20 16 13 12 11 13 14 15 17 22 29 34 34 34 36 38 39 41 42 44 45
8 10 11 14 17 18 20 23 25 27 29 30 30 29 30 31 28 26 27 30 30 32 31 28 26 21 21 21 17 16 17 17 18 16 17 20 27 31 30 31 32 35 36 37 39 41 40
12 13 14 14 16 18 19 20 23 25 28 29 29 29 28 28 29 27 25 25 28 28 26 27 25 24 21 22 22 18 16 17 16 17 20 21 24 25 28 29 30 30 30 32 33 35 37
16 16 17 17 18 18 20 21 21 23 25 27 28 29 28 27 26 26 27 25 25 24 23 24 24 21 20 19 19 20 16 13 13 16 19 22 22 22 25 27 28 28 28 28 29 32 35
19 19 20 21 20 21 20 21 23 23 23 24 26 28 29 29 28 24 23 24 25 24 22 20 20 19 17 16 16 16 17 15 10 11 12 16 19 21 24 26 25 25 25 26 27 28 30
24 22 21 22 23 22 23 22 21 23 25 24 24 25 27 28 29 26 25 22 21 22 21 20 17 16 15 14 12 9 10 12 13 9 6 6 13 18 19 22 23 24 25 25 26 27 28
28 27 23 23 22 24 25 25 24 22 23 25 25 25 25 27 27 29 27 25 23 19 17 18 17 16 13 12 10 8 5 6 9 10 10 5 4 9 15 20 23 24 24 26 27 29 29
32 31 29 26 26 27 28 25 27 27 26 24 25 26 25 25 25 25 25 24 22 22 20 16 14 14 13 11 9 8 5 4 0 4 6 8 8 7 8 10 15 17 21 22 25 27 24
35 34 33 33 30 28 30 34 31 30 30 30 30 28 29 26 27 27 25 24 23 22 19 19 17 14 11 10 9 7 5 5 3 4 5 7 9 10 11 13 13 15 18 20 21 23 26
39 37 37 35 34 33 33 34 33 37 36 33 33 33 31 31 32 29 28 27 26 24 22 20 18 17 15 12 11 8 7 6 7 8 8 8 9 12 14 15 17 19 20 23 25 28 29
44 42 41 39 40 38 36 36 36 38 40 38 35 36 37 36 35 33 34 31 27 24 25 24 21 20 18 17 16 13 12 10 9 10 11 11 14 16 15 19 21 20 22 26 28 29 32
47 47 46 45 44 44 42 41 42 40 42 43 40 40 40 38 41 41 34 31 29 27 26 27 25 23 23 22 20 19 18 17 16 15 15 15 17 18 18 21 25 22 24 27 30 32 34
53 53 51 50 48 50 48 47 47 47 45 45 47 46 45 43 38 39 35 31 31 27 28 28 28 27 26 26 24 22 22 22 21 20 21 22 24 26 28 27 28 27 27 30 33 35 37
59 59 56 54 56 55 54 55 51 52 52 49 51 53 50 47 42 43 40 37 34 31 29 30 29 29 29 29 29 28 27 26 26 25 26 27 29 31 31 35 37 35 35 36 38 44 41
63 63 60 58 61 62 62 63 58 55 53 55 59 60 57 56 51 44 42 41 41 37 36 34 35 33 34 33 32 32 33 33 33 31 30 32 35 36 38 42 42 40 41 43 46 47 49
75 77 75 75 73 68 66 68 67 63 61 62 58 58 57 57 54 51 48 45 41 41 42 42 39 37 41 39 39 39 40 39 39 38 38 39 39 40 42 45 48 48 49 50 51 53 53
69 73 76 78 75 71 75 75 74 72 67 64 60 60 58 56 55 53 52 48 48 48 47 48 46 46 47 47 47 47 47 47 46 46 45 47 45 47 46 46 48 50 53 55 56 57 58
Wind_Direction
43 47 47 43 35 29 25 25 21 15 13 6 354 346 349 346 344 348 348 343 331 311 283 253 244 233 230 222 216 213 213 212 212 216 217 216 216 215 215 214 215 217 215 211 214 214 212
35 42 47 45 39 35 29 27 24 20 19 13 3 354 356 353 353 356 355 351 350 340 303 250 241 232 227 225 214 209 208 207 208 209 213 216 215 215 215 214 214 216 216 215 215 220 219
30 34 40 44 39 34 30 28 26 23 22 20 12 2 1 359 356 357 359 353 349 354 322 236 246 227 227 220 220 217 213 208 205 208 209 212 215 214 213 213 214 215 215 215 217 217 225
23 26 29 36 35 33 30 27 26 25 24 27 21 11 6 5 0 3 4 2 2 13 9 198 250 208 219 217 217 217 214 206 206 207 213 213 212 213 213 213 213 214 214 215 216 218 219
17 21 22 23 30 29 31 27 25 24 26 29 25 19 13 8 5 8 12 13 15 31 47 53 104 164 192 203 200 209 208 209 210 209 211 213 210 209 211 211 212 214 215 215 215 218 217
22 21 18 17 19 23 27 26 24 25 24 29 29 25 21 15 10 9 15 17 23 32 44 77 82 40 159 173 187 190 196 202 208 210 210 212 207 205 207 209 212 213 215 216 216 218 218
30 29 23 17 13 15 19 22 23 25 25 27 31 28 26 22 17 14 18 17 30 34 40 63 49 49 125 151 168 184 187 195 202 204 205 212 208 201 202 206 209 210 213 214 216 216 218
18 21 26 23 18 15 13 17 20 23 24 25 28 31 30 27 24 21 22 23 30 44 47 42 30 62 126 146 165 176 186 191 197 198 204 209 204 199 197 201 206 206 208 211 213 216 218
34 31 31 28 24 23 21 19 18 20 22 22 27 30 34 33 29 27 29 28 29 36 39 50 56 59 70 156 194 199 184 187 190 194 204 202 200 198 193 195 202 203 206 208 210 214 218
35 33 33 32 30 29 28 25 25 23 21 21 23 28 29 35 34 31 31 34 34 36 41 49 50 44 82 57 172 188 187 189 189 195 201 202 195 194 191 191 196 199 204 206 209 212 216
34 30 27 27 27 27 29 28 25 27 25 21 21 24 27 32 35 32 30 33 37 44 46 49 53 56 59 74 94 154 188 193 192 193 202 189 188 190 189 185 190 196 201 204 208 212 216
13 19 18 17 19 20 23 27 26 24 25 25 23 24 25 28 33 36 35 34 38 42 47 50 61 58 58 73 101 127 166 174 179 185 180 178 185 188 182 178 185 192 198 202 207 212 218
341 353 0 3 9 12 15 18 22 25 22 23 24 23 26 26 29 32 37 38 39 41 43 44 49 61 61 68 84 104 119 134 145 162 167 174 184 185 174 174 183 190 196 201 207 213 219
313 324 338 345 351 -0 4 7 12 17 20 20 20 22 22 26 28 28 29 34 37 40 39 41 44 49 62 63 73 95 109 120 129 138 152 173 182 178 169 174 182 189 195 202 211 217 223
294 308 319 328 334 342 352 358 1 6 14 13 18 19 19 22 24 27 24 26 27 33 38 37 41 44 53 63 66 74 97 113 126 138 149 166 173 170 168 174 181 188 196 206 216 222 228
284 293 304 313 321 328 336 344 352 356 3 9 7 13 12 17 20 21 24 22 21 25 32 37 38 39 45 55 69 74 78 96 118 140 151 161 162 164 171 178 182 187 195 206 216 223 230
277 285 293 301 308 315 325 332 338 344 350 358 3 4 7 8 13 15 18 24 24 20 23 33 38 39 38 45 59 72 82 82 79 133 154 161 162 167 178 181 184 190 198 207 217 223 231
276 280 287 294 301 307 315 320 328 331 338 346 352 355 358 -0 1 6 8 10 20 23 20 17 25 37 37 45 44 54 82 94 99 91 111 143 170 179 184 190 191 195 203 212 219 225 232
271 276 281 289 295 300 305 311 315 320 326 331 337 342 347 349 352 352 358 0 1 7 14 18 14 13 25 38 42 47 50 109 122 126 123 107 147 194 197 198 200 205 212 220 227 230 235
270 272 275 279 285 297 300 302 308 312 315 319 324 328 332 336 339 341 343 347 351 354 351 356 4 10 6 4 19 26 38 16 90 167 158 163 161 187 208 220 219 225 227 232 239 242 248
267 270 273 277 278 284 291 298 293 301 305 307 310 314 316 322 323 327 329 330 333 338 339 341 336 339 350 354 352 347 348 339 331 284 256 218 209 204 209 216 224 230 238 247 252 253 255
265 268 272 273 276 282 284 290 300 296 294 296 302 307 310 311 313 317 318 318 317 318 322 325 324 327 318 317 325 325 324 309 300 293 288 275 253 247 240 237 237 237 244 247 248 252 256
265 268 270 272 276 279 281 282 284 289 294 295 289 292 297 303 305 309 311 309 310 305 309 309 311 311 309 309 301 292 295 292 293 289 281 277 275 272 269 266 258 250 259 259 259 262 264
263 266 268 269 273 275 277 278 280 284 289 295 295 290 290 294 298 303 304 299 300 301 300 302 300 299 299 297 296 297 295 284 280 276 278 278 277 276 273 271 273 272 269 270 272 271 273
262 264 265 268 269 272 274 277 279 280 283 285 289 293 290 291 293 297 296 293 290 287 286 291 292 292 290 290 288 286 285 285 284 281 277 275 275 276 276 272 274 273 270 271 272 273 274
261 262 261 265 269 270 273 275 274 277 281 281 283 285 286 287 292 288 287 285 283 282 278 279 280 283 283 284 282 282 279 279 278 276 275 275 278 278 279 276 277 278 278 275 275 273 276
258 260 261 263 264 266 270 269 269 272 274 278 282 284 285 283 287 285 286 285 284 280 277 273 272 274 274 275 277 278 277 276 274 273 273 274 275 275 275 276 277 277 276 277 278 280 279
257 259 259 260 266 264 265 269 272 269 270 275 277 279 281 282 281 282 283 282 279 279 281 276 275 274 271 272 273 274 275 273 274 274 273 273 274 273 272 275 278 280 280 279 279 279 281
265 265 267 269 267 264 266 267 270 272 269 270 272 275 275 276 277 279 280 282 282 279 279 277 277 278 270 272 272 273 274 274 273 273 274 276 275 276 277 279 281 282 282 281 282 283 284